Regional Weather Roundup
Issued by NWS

Home | Current Version | Previous Version | Text Only | Print | Product List | Glossary On
Versions: 1 2 3 4 5 6 7 8 9 10 11 12 13 14 15 16 17 18 19 20 21 22 23 24 25 26 27 28 29 30 31 32 33 34 35 36 37 38 39 40 41 42 43 44 45 46 47 48 49 50
654
ASUS42 KTBW 012317
RWRFL
FLORIDA REGIONAL WEATHER ROUNDUP
NATIONAL WEATHER SERVICE TAMPA BAY RUSKIN FL
700 PM EDT SUN MAY 01 2016

NOTE: "FAIR" INDICATES FEW OR NO CLOUDS BELOW 12,000 FEET WITH NO
SIGNIFICANT WEATHER AND/OR OBSTRUCTIONS TO VISIBILITY.

FLZ001>010-012>015-112-114-115-020000-
PANHANDLE FLORIDA

CITY           SKY/WX    TMP DP  RH WIND       PRES   REMARKS
PENSACOLA      CLOUDY    78  72  81 SE7       29.99F
PENSACOLA NAS  PTSUNNY   77  72  84 S6        29.99F
MILTON NAS     CLOUDY    78  72  81 S10       29.99
CRESTVIEW      CLOUDY    80  69  69 S7        30.01R
DUKE FIELD     FAIR      79  70  72 SW12      29.99R
VALPARAISO     PTSUNNY   78  71  81 S7        29.99S
MARY ESTHER    MOSUNNY   76  71  82 SE9       29.99S
PANAMA CITY    FAIR      80  70  71 S9        29.99S
TYNDALL AFB    CLOUDY    79  71  76 S9        30.00S
APALACHICOLA   MOSUNNY   78  72  81 S7        30.01S

STATION/POSITION SKY/WX   TEMP    WIND        PRES    WAVE   SWELL
                          AIR SEA DIR/SP/G            HT/PER HT/PER
                          (F)     (DEG/KT/KT) (MB)    (FT/S) (FT/S)
30.1N   87.6W              76 76   80/  6/  8 1014.7F   4/ 7   3/ 7
29.2N   88.2W              76 76   60/  8/ 10 1015.0R
28.8N   86.0W              79 79  140/  4/  4 1015.3F   4/ 7   3/ 7
PANAMA CITY BEAC           76 79  170/ 11/ 13 1016.2F
TOWER C                    75     120/  4/  5 1016.6F
28.5N   84.5W              77 75  140/  4/  4 1015.4R   4/ 6   3/ 6

$$
FLZ011-016>038-118-127-128-134-139-239-020000-
NORTH FLORIDA

CITY           SKY/WX    TMP DP  RH WIND       PRES   REMARKS
MARIANNA       PTSUNNY   83  67  58 S6        29.97R
TALLAHASSEE    PTSUNNY   84  66  54 SE8       30.00S
PERRY          SUNNY     82  67  61 SW12      30.01R
LIVE OAK       CLOUDY    90  66  45 SW5       30.00R
CROSS CITY       N/A     84  64  50 W9        29.98S
LAKE CITY      FAIR      86  61  42 S3        29.98S
GAINESVILLE    SUNNY     88  59  37 E8        29.97R
WILLISTON      FAIR      90  64  43 CALM      29.98R
PALATKA        FAIR      84  84 100 SE13      29.99R HX 104
MAYPORT NAS    SUNNY     77  67  71 E12       30.02R
JACKSONVILLE   MOSUNNY   81  63  54 SE15      30.00R
JAX NAS        PTSUNNY   85  66  53 E14       30.00R
JAX CECIL      SUNNY     84  66  54 SE7       29.99R
FERNANDINA BEA FAIR      79  70  73 E8        30.01S
ST AUGUSTINE   SUNNY     78  70  76 SE14G20   30.02R
PALM COAST     SUNNY     79  70  73 SE13G21   30.01R

STATION/POSITION SKY/WX   TEMP    WIND        PRES    WAVE   SWELL
                          AIR SEA DIR/SP/G            HT/PER HT/PER
                          (F)     (DEG/KT/KT) (MB)    (FT/S) (FT/S)
SHELL POINT                79     180/  6/  9 1015.0
KEATON BEACH               78     260/  8/  9 1016.0R
CEDAR KEY                  80     300/  7/  9 1015.9R
FERNANDINA                 80 72  110/  6/ 14 1016.3R
30.7N   81.3W                 75                N/A     3/ 6
MAYPORT                    78 72  140/  9/ 14 1016.2R
ST AUGUSTINE               75 74  140/ 11/ 12 1017.0R

$$
FLZ040-043>046-052-053-057-058-063-144-020000-
INTERIOR CENTRAL FLORIDA

CITY           SKY/WX    TMP DP  RH WIND       PRES   REMARKS
OCALA          SUNNY     88  59  37 S7        29.98R
THE VILLAGES     N/A     88  61  40 E6        29.88R
LEESBURG       SUNNY     88  61  40 CALM      29.98S
SANFORD        SUNNY     84  67  56 SE15      29.99R
ORLANDO EXEC   SUNNY     85  68  56 SE15      29.99R
ORLANDO INTL   MOSUNNY   83  66  56 E15       29.99R
KISSIMMEE      MOSUNNY   84  68  58 E15       29.99R
WINTER HAVEN   SUNNY     88  63  43 E9        29.98R
LAKELAND       MOSUNNY   88  63  42 E7        29.97R
BARTOW         FAIR      86  63  45 E8        29.98R
OKEECHOBEE     MOSUNNY   81  66  61 E10G16    29.99R

$$
FLZ041-047-054-059-064-141-147-020000-
EAST CENTRAL FLORIDA

CITY           SKY/WX    TMP DP  RH WIND       PRES   REMARKS
ORMOND BEACH   SUNNY     81  70  69 SE14      30.00S
DAYTONA BEACH  MOSUNNY   79  69  71 SE10G17   30.01R
DELAND           N/A     82  68  61 SE13      30.01R
NEW SMYRNA BEA MOSUNNY   79  70  73 SE17G24   30.02R
JFK SPACE CTR  SUNNY     80  69  68 SE9       30.01R
TITUSVILLE     MOSUNNY   81  68  65 SE17      30.01S
CAPE CANAVERAL SUNNY     80  69  69 SE9       30.00S
PATRICK AFB    SUNNY     80  70  71 SE13      30.00R
MELBOURNE      SUNNY     80  68  66 E12       30.00R
VERO BEACH     SUNNY     80  68  66 E10G22    30.00S
FT PIERCE      SUNNY     79  68  69 SE15      29.99S
STUART         MOSUNNY   82  72  69 E15       30.00F

STATION/POSITION SKY/WX   TEMP    WIND        PRES    WAVE   SWELL
                          AIR SEA DIR/SP/G            HT/PER HT/PER
                          (F)     (DEG/KT/KT) (MB)    (FT/S) (FT/S)
28.5N   80.2W              79 78  130/ 10/ 12 1016.6R
28.9N   78.5W              77 78  130/ 10/ 10 1017.3S
TRIDENT PIER               81 80  120/  6/ 11 1016.1R
28.4N   80.5W                 78                N/A     3/ 5
27.5N   80.2W                 78                N/A     3/ 5   2/11

$$
FLZ050-056-061-142-242-148-248-149-249-151-251-155-255-
160-260-020000-
WEST CENTRAL FLORIDA

CITY           SKY/WX    TMP DP  RH WIND       PRES   REMARKS
CRYSTAL RIVER  FAIR      82  68  61 W8        29.98S
INVERNESS      FAIR      88  64  45 SE5       29.98R
BROOKSVILLE    MOSUNNY   83  69  62 NW12      29.98R
ZEPHYRHILLS    FAIR      89  57  33 NE6       29.97S
CLEARWATER AIR FAIR      81  68  65 W6        29.97S
ST PETE CLEARW SUNNY     83  67  58 NW10      29.97R
TAMPA INTL     MOSUNNY   84  68  58 NW12G21   29.97R
TAMPA EXEC     PTSUNNY   88  64  45 CALM      29.96S
PLANT CITY     SUNNY     90  64  43 NE7       29.98S
MACDILL AFB    SUNNY     86  70  59 VRB7      29.96R
PETER O KNIGHT SUNNY     88  72  58 W8        29.97R
ST PETERSBURG  SUNNY     82  66  58 W9        29.95R
SARASOTA       SUNNY     83  66  56 W7        29.95R
VENICE         NOT AVBL

STATION/POSITION SKY/WX   TEMP    WIND        PRES    WAVE   SWELL
                          AIR SEA DIR/SP/G            HT/PER HT/PER
                          (F)     (DEG/KT/KT) (MB)    (FT/S) (FT/S)
27.3N   84.2W                 80                N/A     3/ 6
CLEARWATER BEACH           80 81  250/  7/  9 1014.9R
MIDDLE TAMPA BAY NOT AVBL
VENICE                     80 82  250/  6/  7 1014.3R

$$
FLZ066-069-070-075>078-162-262-165-265-020000-
SOUTHWEST FLORIDA AND KEYS

CITY           SKY/WX    TMP DP  RH WIND       PRES   REMARKS
PUNTA GORDA    MOSUNNY   82  71  69 SW9       29.97R
FT MYERS       MOSUNNY   82  70  66 W9        29.94R
SOUTHWEST INTL SUNNY     83  70  64 W10       29.95R
NAPLES         PTSUNNY   82  71  69 SW8       29.95R
MARCO ISLAND   SUNNY     82  70  65 S9        29.95R
MARATHON       SUNNY     82  70  66 E10       29.95S
KEY WEST NAS   MOSUNNY   81  70  69 E14       29.94S
KEY WEST INTL  MOSUNNY   81  72  74 E15       29.95R

STATION/POSITION SKY/WX   TEMP    WIND        PRES    WAVE   SWELL
                          AIR SEA DIR/SP/G            HT/PER HT/PER
                          (F)     (DEG/KT/KT) (MB)    (FT/S) (FT/S)
NAPLES                        82              1013.8F
26.0N   85.6W              80 80  100/ 12/ 14 1013.6R   5/ 7   3/ 7
DRY TORTUGAS               79     110/ 11/ 12 1013.6R
SAND KEY                   79     110/ 16/ 19 1014.0S
LONG KEY                   80 82  100/ 12/ 14 1014.8R
MOLASSES REEF              79 81  100/  9/ 10 1015.1R

$$
FLZ067-068-071>074-168-172>174-020000-
SOUTHEAST FLORIDA

CITY           SKY/WX    TMP DP  RH WIND       PRES   REMARKS
W PALM BEACH   MOSUNNY   81  69  67 E13       30.00S
BOCA RATON     MOSUNNY   81  72  74 SE12      29.99S
FT LAUDER-EXEC MOSUNNY   82  68  62 E16       29.98R
FT LAUDERDALE  MOSUNNY   81  70  69 E16       29.98R
POMPANO BEACH  MOSUNNY   81  68  64 E13       29.99R
PEMBROKE PINES MOSUNNY   82  68  62 E14       29.99S
OPA LOCKA      MOSUNNY   83  68  60 E16       29.98S
MIAMI          MOSUNNY   82  68  62 E12       29.98R
WEST KENDALL   MOSUNNY   81  67  62 E13       29.97S
HOMESTEAD      SUNNY     81  70  67 E9        29.97S

STATION/POSITION SKY/WX   TEMP    WIND        PRES    WAVE   SWELL
                          AIR SEA DIR/SP/G            HT/PER HT/PER
                          (F)     (DEG/KT/KT) (MB)    (FT/S) (FT/S)
PORT EVERGLADES            80      80/  8/ 14 1015.4R
VIRGINIA KEY               80 82   90/  9/ 10 1015.2F
LAKE WORTH                 78 79  100/ 12/ 14 1015.5F
SETTLEMENT POINT           81     110/ 10/ 11 1016.9R

$$





USA.gov is the U.S. government's official web portal to all federal, state and local government web resources and services.